STARLINK-32823 (62823 NORAD) Tracking and Keplerian Element Data

This shows tracking and keplerian element data for the satellite.

Feedback or suggestion? Click here.




ElementValue
Catalog62823
NameSTARLINK-32823
Epoch Orbit292
Epoch Day35.25001157
Epoch Year2025
RAAN11.4568
Inclination53.1473
Eccentricity0.000115
Argument of Perigee84.2966
Mean Anonmoly113.8941
Mean Motion15.86028576
Decay Rate-0.0109891
L11 62823U 25018T 25035.25001157 -.01098910 00000+0 -49380-2 0 9998
L22 62823 53.1473 11.4568 0001150 84.2966 113.8941 15.86028576 2921



Live tracking and technical data element details for STARLINK-32823 (NORAD 62823). STARLINK-32823 can be tracked NOW for your location showing map with azimuth and elevation plus other details from your city location.







IsCatalogInMostPopularTable: catalog: 62823, numindb: 3
Update: records affected: 1



GetName: 62823 STARLINK-32823

Hit Count: updated at: Sun, 09 Feb 2025 13:52:44 GMT